STARLINK-35029

Last updated on Tue Sep 16 2025 00:02:08 GMT+0000 (Coordinated Universal Time)

1 65445U 25194M 25257.95724593 -.00211942 00000+0 -12615-2 0 9997 2 65445 97.5975 109.2803 0001112 32.2244 327.9090 15.78433735 3080
UTC large
Height (km)
Speed (km/s)
/
Latitude / Longitude
Inclination (degrees)
Orbital Period (minutes)
Azimuth
Elevation
Range (km)
Doppler Factor

Next 0 passes for location: London (51.5072 / 0.1276)

Sorry there are no passes over London.